Wind_Speed
12 13 12 12 10 11 10 6 8 8 7 10 11 5 3 0 1 3 12 12 13 15 13 17 20 21 25 25 27 27 29 26 24 25 22 21 21 18 15 14 12 10 9 8 8 7 6 4 3
11 11 12 14 16 18 12 12 15 10 4 8 6 1 1 3 4 14 12 11 14 15 13 16 18 20 23 24 25 25 26 24 22 21 20 19 18 17 14 12 10 9 8 7 6 6 6 5 3
11 12 15 11 12 13 13 11 13 14 8 6 7 9 8 12 7 11 12 12 13 14 14 15 16 18 22 22 23 23 22 21 21 19 18 17 15 14 12 10 9 9 9 6 6 6 6 6 5
11 11 10 8 8 10 13 10 11 12 10 7 8 9 14 12 9 9 7 12 13 14 14 14 17 18 22 21 21 22 20 19 20 19 17 15 14 12 10 11 9 10 11 9 8 8 9 9 9
11 9 8 10 7 6 9 9 10 11 6 5 7 9 14 15 10 5 9 12 13 13 14 15 16 18 20 21 22 21 20 18 18 18 16 13 11 10 10 11 11 11 12 10 10 11 12 12 12
15 10 12 9 8 9 8 8 12 14 14 7 3 8 11 13 13 8 7 12 15 14 13 15 17 17 20 21 21 21 20 18 16 15 13 12 10 10 11 11 11 11 13 12 11 12 14 16 14
12 12 9 9 12 11 9 8 9 14 13 12 6 5 11 13 13 11 9 10 12 14 13 13 18 17 22 22 21 20 19 18 16 13 12 10 10 10 11 11 11 11 12 13 13 13 15 16 16
10 14 13 9 14 13 10 9 6 10 12 11 6 6 12 19 21 16 10 8 8 11 12 12 15 14 13 16 16 21 19 17 16 13 12 10 11 13 13 12 12 11 11 13 11 12 12 12 14
6 7 8 11 9 8 9 6 6 6 4 9 10 8 14 18 20 20 13 6 6 7 10 11 14 16 16 14 17 18 21 19 16 13 13 11 13 14 14 13 12 11 11 11 11 7 10 11 13
2 5 10 6 4 5 6 3 8 4 2 7 8 9 15 18 20 21 13 11 6 4 6 12 14 16 15 13 9 18 22 21 19 15 12 12 13 13 14 14 13 11 10 10 8 4 4 4 4
2 6 9 5 1 5 5 5 6 3 3 6 5 12 14 21 23 21 17 6 7 5 4 9 14 16 16 12 10 11 20 21 19 17 13 11 12 12 13 13 11 10 8 7 5 3 1 1 1
3 3 7 7 3 5 4 6 8 7 8 9 11 12 17 19 19 19 16 13 7 3 2 8 15 17 18 18 14 11 14 25 22 17 15 14 14 13 14 13 11 9 7 5 4 2 4 5 5
8 4 9 5 7 3 5 6 7 14 10 11 11 14 14 14 15 16 15 13 9 5 8 8 14 18 20 16 13 14 14 14 24 18 16 16 14 13 13 11 8 7 5 4 3 3 5 5 5
9 12 12 8 10 6 2 2 3 10 10 10 10 12 13 11 13 12 13 12 10 7 8 3 13 17 20 18 16 13 14 16 27 19 17 15 13 11 9 7 5 4 3 4 5 6 7 8 5
10 10 7 11 16 7 2 4 2 7 8 6 9 8 7 8 8 8 10 11 8 5 9 6 10 15 17 16 18 11 8 18 23 18 17 14 12 10 9 6 4 4 5 7 7 8 9 9 10
12 13 18 19 20 9 8 5 3 3 7 6 4 3 4 4 5 7 7 8 7 4 6 5 1 13 16 18 17 11 11 19 18 17 15 12 12 9 7 6 4 3 5 8 7 8 8 9 10
6 8 13 19 21 11 9 3 5 4 7 6 7 7 6 4 6 5 5 6 8 6 6 5 4 11 15 13 18 19 16 19 18 16 16 16 14 10 7 5 5 5 7 8 7 10 9 10 10
7 17 14 17 17 16 17 12 7 13 9 5 8 5 3 6 4 5 4 4 6 6 8 6 7 12 14 10 12 18 20 21 19 19 17 17 15 12 7 5 7 5 7 11 10 8 10 11 7
6 13 19 18 14 17 20 12 14 12 13 7 2 6 2 3 4 5 3 3 3 6 8 13 16 11 9 6 5 11 18 21 21 19 17 15 15 12 8 8 8 9 10 10 9 8 8 11 8
1 10 20 18 21 16 20 18 11 14 14 12 18 19 7 4 4 6 1 1 1 7 6 11 15 11 6 7 11 13 16 18 19 19 17 13 13 9 8 9 7 9 9 11 10 8 9 11 14
11 15 13 16 17 20 19 21 20 19 18 17 20 24 22 7 4 5 1 3 4 5 6 5 4 6 7 5 7 12 16 11 13 19 17 16 14 9 6 7 7 7 6 7 7 8 8 11 17
12 6 11 8 7 7 10 10 21 19 20 19 19 13 14 14 4 2 2 3 4 5 5 5 5 5 6 11 8 8 14 16 12 16 19 15 13 7 5 5 6 6 7 8 9 10 10 11 14
16 12 10 12 11 12 12 7 17 13 18 17 14 8 9 5 6 4 5 7 5 5 6 8 7 8 6 5 1 1 11 14 17 17 14 12 7 5 5 5 6 8 10 12 12 13 11 9 16
11 11 8 7 7 7 18 13 15 21 14 15 13 13 13 14 9 7 8 7 8 7 8 10 12 10 10 8 7 13 22 21 16 14 14 13 8 5 5 6 4 6 8 12 13 18 13 10 15
12 10 1 3 1 7 5 14 29 12 20 9 13 10 13 9 14 9 8 8 10 10 10 13 14 10 12 14 19 13 14 15 19 17 11 6 7 4 3 5 8 10 14 11 11 11 11 13 16
18 17 6 4 2 4 6 10 16 14 17 13 13 11 10 11 14 11 11 9 12 13 14 14 13 10 9 9 3 10 13 17 11 7 4 5 4 3 4 3 5 8 13 16 16 16 16 18 21
17 16 15 1 5 4 7 13 14 11 17 20 19 15 12 13 15 13 15 15 13 13 13 13 13 13 13 14 8 7 9 4 9 14 8 3 3 1 5 8 12 15 19 19 19 18 17 17 17
22 13 9 6 2 5 7 12 16 16 24 26 19 15 14 14 16 17 19 19 16 13 14 15 14 13 15 15 12 11 11 6 3 3 4 3 4 6 10 14 17 17 15 13 12 10 10 10 9
21 17 11 10 5 4 2 9 12 16 24 22 20 17 16 16 19 19 21 21 17 15 13 13 15 14 13 13 10 7 7 7 4 3 3 4 6 9 13 14 13 11 10 8 7 6 6 7 7
24 21 17 13 8 7 4 7 7 11 19 23 25 17 16 17 22 23 20 17 15 14 14 13 12 11 11 9 6 6 5 4 3 2 4 7 9 10 11 11 9 8 6 5 6 7 7 7 7
Wind_Direction
86 79 69 76 81 104 92 98 109 111 104 118 133 98 158 271 185 149 146 134 129 121 127 123 129 130 137 136 139 137 139 135 135 136 133 135 134 130 130 128 124 117 115 122 135 142 144 146 171
73 72 75 90 100 96 87 88 84 75 107 135 132 275 283 101 134 139 148 140 133 129 135 128 136 135 143 141 143 142 143 138 136 137 136 134 133 129 128 125 124 124 121 130 149 163 163 159 176
73 79 97 95 91 91 103 105 67 57 73 134 155 134 112 94 110 143 155 149 140 137 140 138 139 142 147 145 146 145 145 143 138 137 135 133 129 124 123 122 125 120 115 128 144 147 151 132 119
78 90 92 101 107 103 103 93 54 62 91 112 127 121 112 97 111 128 149 159 150 144 145 144 143 147 151 151 149 148 148 146 141 139 136 132 126 121 121 119 119 117 116 116 117 118 114 113 106
76 78 84 125 119 108 108 84 63 57 46 114 127 118 102 86 76 110 137 152 154 148 151 146 148 151 155 155 153 152 153 149 145 141 139 132 125 123 126 124 123 117 105 95 91 96 103 102 99
60 87 113 117 135 126 124 75 62 47 46 73 131 140 104 89 77 83 117 150 158 154 160 151 156 157 159 159 156 155 154 151 148 145 141 134 132 132 134 131 127 121 109 97 87 94 102 99 98
67 105 117 142 153 149 124 113 61 36 64 70 94 129 107 96 76 70 84 140 152 158 165 161 164 171 170 164 160 160 157 155 151 150 145 141 138 139 139 138 133 124 114 105 98 92 95 99 107
91 107 127 168 167 157 151 132 80 55 60 72 108 91 103 91 72 62 69 104 152 165 167 169 172 174 170 166 167 165 161 158 158 157 152 153 147 150 149 150 140 131 122 117 111 99 87 111 115
50 78 173 169 156 138 163 165 81 60 10 72 90 110 107 85 71 51 54 84 121 160 178 178 180 177 175 176 178 174 165 164 163 162 160 159 160 160 159 159 149 143 134 127 123 105 91 99 122
22 92 144 165 122 45 130 179 22 344 36 85 51 132 106 77 62 47 54 73 88 146 190 193 192 189 185 183 187 187 173 169 168 166 164 167 166 168 167 165 158 157 153 144 135 117 80 82 122
130 121 163 170 204 18 83 108 19 356 62 82 59 120 92 71 56 46 39 75 57 66 182 207 204 196 192 187 194 200 187 172 175 167 170 164 166 170 173 170 166 166 172 164 164 173 132 57 48
152 184 209 183 177 33 67 59 37 21 110 115 114 96 76 68 58 44 32 31 30 20 340 215 209 203 204 194 188 195 211 188 171 171 171 166 172 174 177 180 179 183 193 194 199 269 331 341 341
209 208 204 206 198 108 95 50 61 48 97 116 80 74 67 59 49 33 19 13 21 15 330 240 209 206 200 196 185 206 213 236 169 171 173 174 176 176 182 189 188 187 199 220 265 295 317 319 329
163 178 193 197 194 167 341 35 62 42 78 99 82 75 60 48 38 25 11 5 16 24 28 170 193 200 202 203 200 208 227 205 174 169 177 176 180 179 190 197 214 223 268 281 308 322 316 303 288
145 158 179 209 184 167 192 198 123 14 56 68 69 60 50 36 27 8 359 9 9 41 47 59 182 197 206 201 196 198 210 163 159 182 185 186 185 182 195 201 234 262 283 302 306 321 306 303 288
196 179 159 185 194 197 204 254 174 320 12 359 27 19 41 10 357 353 346 357 5 49 45 35 148 197 201 199 187 199 197 162 172 189 181 172 190 192 201 214 234 267 277 280 278 308 313 315 314
81 148 194 174 194 215 229 251 227 294 258 284 287 312 337 326 1 359 351 352 7 43 30 3 212 185 184 200 199 199 191 184 186 191 191 193 192 201 212 222 219 235 270 259 278 304 322 316 329
257 213 216 199 210 227 222 239 242 237 237 293 298 269 312 322 332 315 327 346 11 55 37 12 183 171 175 190 198 206 201 192 192 196 203 209 201 202 217 241 221 224 270 291 296 308 314 311 317
310 215 222 198 216 229 219 248 240 234 241 200 313 18 115 244 265 330 278 348 52 92 67 73 114 140 169 174 162 190 195 198 202 203 205 194 197 203 232 224 243 256 283 294 290 292 300 301 310
249 227 207 221 216 223 226 241 231 238 252 256 257 268 327 232 274 331 222 172 129 118 128 91 96 90 98 210 209 194 201 213 213 206 211 200 190 197 205 222 247 270 284 291 299 301 305 305 310
264 259 271 244 231 236 230 234 236 253 253 255 264 257 270 253 248 312 131 176 185 144 157 184 126 63 61 86 187 213 205 184 196 219 209 195 192 206 229 248 254 270 279 286 310 310 307 308 311
309 303 261 240 215 228 232 264 255 251 248 249 261 266 269 271 203 260 124 152 170 174 185 189 148 122 90 95 114 185 197 213 219 172 185 183 187 200 228 257 269 270 278 285 285 291 298 314 314
304 279 273 255 241 259 248 253 268 248 240 223 227 216 248 244 191 186 123 178 158 172 169 178 148 136 152 165 255 339 205 200 159 139 140 150 169 197 224 236 262 266 283 281 286 288 282 312 311
279 251 242 261 264 268 250 222 269 242 234 201 200 225 235 242 221 199 183 196 167 176 154 153 139 133 96 77 133 157 122 133 145 141 136 153 161 177 234 237 273 308 308 300 304 287 280 315 308
253 226 54 344 296 233 278 224 245 253 223 219 211 209 233 214 220 207 192 202 170 170 160 151 148 143 145 103 84 104 123 138 131 124 142 166 202 221 299 272 275 261 320 315 312 325 293 310 310
250 236 200 206 224 284 226 241 248 229 208 216 197 208 209 200 194 196 194 201 176 169 173 172 172 163 166 155 169 125 125 120 131 150 160 199 249 349 46 312 298 310 300 303 308 309 304 302 298
241 222 221 277 292 299 237 263 256 220 194 177 193 196 193 175 184 182 190 195 184 169 166 168 179 172 165 169 196 185 162 184 172 167 150 254 197 55 310 311 306 308 304 302 302 305 304 302 300
234 243 191 199 206 270 272 272 244 207 180 170 178 188 193 181 170 181 190 192 176 166 167 167 165 165 172 178 201 197 194 205 235 240 190 240 316 315 312 305 303 299 295 299 302 303 301 295 293
217 208 201 184 217 210 286 293 313 216 196 192 170 175 179 180 177 181 181 174 170 174 173 172 171 171 175 185 188 175 167 144 100 116 199 250 271 280 288 295 300 304 304 311 305 306 317 317 311
235 229 234 210 215 215 263 304 329 197 185 174 166 174 168 170 161 166 172 174 180 180 178 177 177 177 182 188 182 166 189 201 221 251 289 281 288 294 298 298 312 321 322 322 334 345 346 349 349
Height
3161 3162 3161 3161 3165 3164 3164 3167 3167 3166 3166 3166 3168 3170 3171 3171 3171 3175 3172 3173 3174 3174 3177 3176 3178 3180 3182 3184 3187 3188 3191 3193 3196 3198 3200 3202 3204 3206 3208 3209 3210 3211 3211 3212 3212 3212 3213 3214 3215
3164 3164 3164 3163 3167 3166 3168 3168 3169 3169 3169 3169 3171 3171 3172 3171 3171 3172 3174 3175 3176 3177 3179 3179 3181 3183 3185 3188 3190 3192 3195 3196 3199 3201 3204 3206 3207 3208 3209 3211 3212 3212 3212 3213 3213 3214 3214 3214 3215
3167 3165 3167 3167 3168 3169 3170 3172 3171 3170 3170 3171 3172 3172 3172 3173 3174 3175 3176 3177 3178 3178 3181 3182 3184 3186 3188 3190 3193 3195 3198 3200 3202 3205 3207 3208 3210 3211 3211 3212 3213 3213 3213 3213 3214 3214 3214 3215 3216
3169 3170 3170 3171 3171 3173 3173 3174 3174 3172 3173 3174 3175 3174 3175 3174 3176 3176 3177 3178 3179 3180 3182 3184 3186 3188 3190 3192 3195 3198 3200 3203 3204 3206 3209 3210 3212 3213 3214 3214 3215 3215 3214 3215 3215 3215 3216 3217 3217
3170 3170 3172 3172 3173 3175 3176 3176 3176 3176 3176 3176 3177 3176 3175 3176 3177 3177 3178 3179 3181 3182 3184 3185 3188 3190 3192 3195 3197 3199 3202 3205 3207 3208 3210 3212 3214 3215 3216 3216 3216 3217 3217 3218 3218 3218 3217 3218 3219
3172 3173 3175 3175 3175 3176 3178 3178 3178 3178 3177 3177 3178 3179 3178 3178 3179 3179 3179 3179 3180 3183 3185 3186 3188 3190 3193 3196 3198 3200 3203 3206 3209 3211 3212 3214 3215 3217 3218 3218 3219 3219 3219 3220 3220 3220 3220 3219 3221
3174 3174 3174 3176 3178 3178 3179 3180 3182 3181 3180 3180 3181 3181 3181 3181 3181 3181 3181 3181 3182 3184 3187 3188 3189 3190 3192 3195 3198 3201 3204 3208 3210 3212 3214 3215 3216 3218 3219 3220 3221 3222 3222 3221 3222 3223 3223 3223 3223
3175 3176 3176 3177 3177 3179 3180 3182 3184 3184 3183 3182 3182 3184 3183 3183 3183 3183 3184 3184 3185 3186 3188 3190 3192 3193 3194 3196 3198 3199 3205 3209 3211 3213 3215 3217 3218 3219 3220 3221 3222 3224 3224 3224 3225 3226 3226 3226 3225
3176 3177 3177 3178 3179 3180 3181 3182 3184 3184 3185 3184 3184 3185 3186 3185 3184 3185 3185 3185 3186 3188 3190 3191 3193 3194 3196 3198 3200 3199 3205 3209 3212 3214 3216 3217 3219 3220 3221 3223 3224 3225 3226 3227 3227 3227 3228 3228 3228
3178 3178 3179 3181 3182 3183 3183 3184 3185 3186 3185 3185 3185 3187 3187 3186 3186 3186 3187 3187 3188 3189 3191 3192 3194 3196 3197 3199 3199 3198 3204 3208 3212 3215 3217 3218 3219 3221 3222 3224 3225 3226 3227 3227 3228 3229 3229 3229 3229
3179 3180 3180 3182 3184 3184 3184 3185 3186 3186 3186 3186 3187 3187 3188 3187 3187 3188 3189 3189 3190 3190 3191 3192 3194 3196 3198 3200 3202 3201 3202 3207 3211 3214 3217 3219 3221 3223 3224 3226 3226 3228 3229 3229 3229 3229 3230 3230 3229
3181 3181 3182 3182 3184 3185 3186 3187 3186 3185 3186 3187 3188 3189 3188 3188 3188 3189 3190 3191 3191 3192 3192 3192 3193 3196 3198 3199 3202 3203 3204 3205 3208 3214 3217 3219 3220 3222 3225 3227 3228 3229 3230 3230 3230 3230 3231 3230 3230
3180 3182 3182 3183 3185 3187 3188 3188 3187 3186 3186 3187 3188 3189 3189 3189 3189 3190 3191 3191 3191 3191 3190 3189 3191 3194 3197 3199 3201 3203 3203 3205 3207 3214 3216 3219 3221 3223 3226 3228 3229 3230 3231 3232 3232 3231 3231 3230 3229
3180 3181 3183 3184 3186 3187 3188 3188 3187 3188 3188 3188 3189 3190 3190 3190 3191 3192 3192 3192 3191 3190 3188 3187 3189 3193 3196 3198 3201 3202 3202 3203 3206 3212 3217 3219 3222 3225 3227 3228 3230 3232 3232 3232 3232 3231 3231 3230 3229
3182 3183 3185 3186 3187 3188 3188 3189 3188 3188 3190 3190 3190 3191 3192 3192 3193 3193 3194 3193 3192 3191 3190 3189 3190 3192 3195 3198 3200 3203 3201 3204 3207 3213 3216 3220 3223 3225 3227 3229 3230 3231 3232 3232 3232 3231 3231 3229 3228
3182 3184 3185 3186 3187 3188 3190 3190 3189 3189 3189 3190 3191 3192 3192 3193 3194 3195 3195 3194 3192 3191 3191 3190 3190 3192 3194 3197 3200 3202 3203 3205 3210 3213 3214 3219 3222 3225 3227 3228 3230 3230 3231 3231 3231 3230 3230 3228 3227
3183 3185 3185 3186 3186 3188 3189 3189 3190 3191 3190 3190 3190 3191 3192 3194 3195 3195 3195 3194 3193 3192 3191 3190 3190 3192 3194 3197 3199 3202 3204 3207 3211 3213 3216 3218 3221 3224 3226 3228 3229 3230 3230 3230 3229 3229 3229 3227 3226
3183 3184 3186 3185 3186 3187 3187 3187 3187 3189 3189 3189 3188 3189 3192 3194 3195 3195 3195 3195 3194 3193 3192 3189 3188 3191 3195 3197 3198 3201 3204 3207 3210 3212 3215 3217 3220 3223 3226 3227 3227 3228 3229 3229 3228 3228 3226 3227 3226
3182 3182 3184 3183 3183 3185 3185 3185 3184 3186 3187 3188 3188 3189 3191 3193 3194 3195 3195 3195 3195 3195 3194 3191 3191 3194 3196 3198 3200 3201 3204 3206 3209 3211 3213 3216 3219 3223 3225 3225 3226 3228 3228 3228 3227 3226 3226 3225 3225
3180 3180 3181 3180 3180 3183 3184 3183 3181 3182 3183 3186 3186 3187 3191 3193 3194 3195 3195 3195 3196 3196 3196 3196 3195 3197 3197 3198 3199 3201 3203 3206 3209 3211 3214 3217 3220 3222 3223 3224 3226 3227 3227 3226 3225 3224 3225 3225 3223
3179 3179 3178 3180 3180 3181 3182 3180 3180 3179 3181 3183 3183 3185 3187 3191 3192 3194 3194 3195 3195 3196 3196 3197 3197 3198 3197 3197 3198 3200 3203 3205 3208 3210 3214 3218 3220 3221 3222 3224 3224 3225 3225 3224 3223 3223 3223 3223 3222
3176 3175 3176 3178 3179 3180 3179 3175 3175 3175 3177 3178 3180 3182 3184 3187 3190 3193 3194 3195 3195 3196 3196 3197 3198 3199 3199 3198 3199 3199 3201 3205 3207 3209 3213 3217 3219 3221 3221 3222 3223 3223 3223 3222 3221 3221 3221 3221 3220
3174 3174 3174 3175 3176 3177 3175 3176 3169 3171 3172 3174 3177 3179 3182 3185 3189 3193 3194 3195 3195 3196 3197 3198 3199 3200 3201 3201 3201 3200 3200 3204 3208 3210 3212 3215 3217 3218 3220 3221 3222 3222 3221 3221 3220 3220 3219 3218 3218
3172 3172 3173 3173 3176 3175 3171 3174 3164 3165 3168 3171 3175 3177 3180 3182 3187 3191 3193 3195 3195 3196 3198 3200 3201 3201 3204 3203 3202 3202 3204 3205 3207 3210 3212 3214 3216 3218 3219 3220 3220 3221 3220 3219 3220 3217 3216 3215 3215
3170 3171 3173 3175 3176 3173 3168 3170 3159 3163 3165 3169 3172 3176 3179 3180 3184 3189 3191 3194 3196 3197 3199 3201 3201 3203 3205 3207 3206 3204 3205 3207 3209 3210 3213 3217 3218 3219 3218 3219 3219 3219 3219 3218 3217 3215 3214 3213 3212
3169 3170 3172 3177 3177 3171 3168 3162 3157 3157 3161 3166 3171 3174 3177 3179 3183 3187 3190 3193 3196 3197 3199 3201 3203 3204 3206 3207 3207 3207 3208 3209 3209 3211 3214 3215 3215 3218 3217 3218 3218 3218 3216 3215 3213 3211 3210 3209 3209
3165 3167 3170 3171 3173 3172 3163 3157 3155 3154 3158 3162 3167 3171 3175 3179 3182 3186 3189 3192 3195 3197 3199 3202 3203 3205 3206 3206 3207 3209 3210 3209 3210 3211 3213 3214 3215 3217 3217 3216 3216 3214 3213 3212 3210 3208 3207 3207 3206
3163 3164 3168 3170 3173 3171 3159 3155 3152 3152 3156 3160 3165 3169 3174 3178 3181 3184 3187 3191 3193 3196 3199 3202 3203 3204 3206 3208 3208 3208 3209 3209 3209 3211 3214 3215 3216 3216 3216 3214 3213 3211 3210 3209 3207 3207 3206 3206 3204
3158 3159 3162 3165 3167 3165 3164 3152 3148 3149 3154 3159 3164 3169 3173 3176 3179 3183 3187 3191 3193 3196 3199 3201 3203 3204 3206 3206 3208 3210 3212 3213 3214 3214 3215 3215 3215 3215 3214 3212 3211 3209 3209 3208 3207 3206 3205 3204 3203
3154 3155 3156 3157 3161 3161 3161 3153 3148 3148 3152 3160 3165 3170 3173 3176 3179 3184 3188 3191 3194 3197 3199 3201 3202 3205 3206 3207 3209 3210 3211 3212 3214 3215 3215 3214 3213 3212 3211 3211 3209 3208 3208 3207 3205 3204 3203 3201 3200